• MPC Preparation (Info)

  • MPEC 2007-F22 : 2007 FA

    The following Minor Planet Electronic Circular may be linked-to from your own Web pages, but must not otherwise be redistributed electronically.

    A form allowing access to any MPEC is at the bottom of this page.


    Read MPEC 2007-F21 Read MPEC 2007-F23


    M.P.E.C. 2007-F22                                Issued 2007 Mar. 17, 01:40 UT
    
         The Minor Planet Electronic Circulars contain information on unusual
             minor planets and routine data on comets.  They are published
       on behalf of Commission 20 of the International Astronomical Union by the
              Minor Planet Center, Smithsonian Astrophysical Observatory,
                              Cambridge, MA 02138, U.S.A.
    
                 Prepared using the Tamkin Foundation Computer Network
    
                                  MPC@CFA.HARVARD.EDU
              URL http://cfa-www.harvard.edu/iau/mpc.html  ISSN 1523-6714
    
                                        2007 FA
    
    Observations:
         K07F00A* C2007 03 16.35399 14 28 50.37 +15 36 51.5          19.9 V EF022703
         K07F00A  C2007 03 16.36046 14 28 50.98 +15 37 14.4          21.4 V EF022703
         K07F00A  C2007 03 16.36691 14 28 51.78 +15 37 37.3          20.4 V EF022703
         K07F00A  C2007 03 16.37336 14 28 52.46 +15 38 01.4          20.3 V EF022703
         K07F00A  C2007 03 16.38490 14 28 53.58 +15 38 38.8          20.0 V EF022703
         K07F00A  C2007 03 16.39278 14 28 54.55 +15 39 07.2          19.1 V EF022703
         K07F00A  C2007 03 16.40065 14 28 55.30 +15 39 35.6          20.3 V EF022703
         K07F00A  C2007 03 16.40852 14 28 56.17 +15 40 02.6          20.0 V EF022703
         K07F00A  C2007 03 16.91892 14 29 56.09 +16 09 54.9          19.2 V EF022595
         K07F00A  C2007 03 16.94061 14 29 58.44 +16 11 11.1          19.4 V EF022595
         K07F00A  C2007 03 16.96231 14 30 00.84 +16 12 29.5          19.1 V EF022595
         K07F00A  C2007 03 16.99626 14 30 04.42 +16 14 28.8                 EF022246
         K07F00A  C2007 03 16.99723 14 30 04.57 +16 14 32.2                 EF022246
         K07F00A  C2007 03 16.99841 14 30 04.73 +16 14 36.3                 EF022246
         K07F00A  C2007 03 16.99925 14 30 04.88 +16 14 40.2                 EF022246
         K07F00A  C2007 03 16.99986 14 30 04.92 +16 14 42.3                 EF022246
         K07F00A  C2007 03 17.00110 14 30 05.05 +16 14 46.6                 EF022246
         K07F00A  C2007 03 17.00221 14 30 05.15 +16 14 50.0                 EF022246
    
    Observer details:
    246 Klet Observatory-KLENOT.  Observers M. Tichy, J. Ticha.  Measurer M. Tichy.
        1.06-m KLENOT Telescope + CCD.
    595 Farra d'Isonzo.  Observers L. Bittesini, G. Lombardi, F. Fabris, F. Piani.
        Measurers L. Bittesini, F. Piani, E. Pettarin.  0.40-m f/4.5 reflector
        + CCD.
    703 Catalina Sky Survey.  Observer R. E. Hill.  Measurers E. C. Beshore,
        E. J. Christensen, G. J. Garradd, A. R. Gibbs, A. D. Grauer, R. E. Hill,
        R. A. Kowalski, S. M. Larson, R. H. McNaught.  0.68-m Schmidt + CCD.
    
    Orbital elements:
    2007 FA                                             PHA, Earth MOID = 0.0350 AU
    Epoch 2007 Apr. 10.0 TT = JDT 2454200.5                 MPC
    M 300.72739              (2000.0)            P               Q
    n   0.69371720     Peri.  128.98292     +0.29044969     +0.95050159
    a   1.2638079      Node   157.15749     -0.94211061     +0.30425173
    e   0.2257814      Incl.   16.52067     -0.16753084     -0.06306830
    P   1.42           H   20.4           G   0.15           U   9
    Residuals in seconds of arc
    070316 703  0.2+  0.0     070316 703  0.4-  0.1+    070316 246  0.5-  0.4-
    070316 703  1.0-  0.2+    070316 703  0.1+  0.5-    070316 246  0.1-  0.5-
    070316 703  0.6+  0.4+    070316 595  0.6+  0.7+    070316 246  0.8+  0.4+
    070316 703  0.5+  1.8+    070316 595  0.2-  0.5-    070316 246  0.4+  0.4+
    070316 703  1.0-  1.4-    070316 595  0.1-  0.4+    070317 246  0.3+  0.2+
    070316 703  0.9+  0.7-    070316 246  1.2-  0.3-    070317 246  0.0   0.3-
    
    Ephemeris:
    2007 FA                  a,e,i = 1.26, 0.23, 17                  q = 0.9785
    Date    TT    R. A. (2000) Decl.     Delta      r     Elong.  Phase     V
    2007 03 11    14 18.47   +10 43.4    0.362    1.279   136.0    32.6    20.1
    2007 03 21    14 37.76   +20 20.7    0.316    1.244   136.3    33.6    19.8
    2007 03 31    14 56.97   +31 29.9    0.289    1.209   131.3    38.4    19.7
    2007 04 10    15 16.64   +42 43.6    0.278    1.173   122.2    46.2    19.7
    2007 04 20    15 37.43   +52 36.5    0.278    1.139   112.0    54.9    19.9
    2007 04 30    16 00.97   +60 28.0    0.284    1.105   102.7    62.8    20.1
    2007 05 10    16 29.86   +66 25.9    0.291    1.073    94.7    69.7    20.3
    2007 05 20    17 07.62   +70 53.1    0.294    1.045    88.2    75.5    20.5
    2007 05 30    18 00.13   +74 07.7    0.293    1.020    83.0    80.5    20.6
    2007 06 09    19 14.69   +76 13.0    0.285    1.000    79.0    84.8    20.6
    2007 06 19    20 52.97   +76 40.6    0.272    0.987    76.1    88.4    20.7
    2007 06 29    22 38.96   +74 41.5    0.254    0.979    74.4    91.1    20.6
    2007 07 09    00 08.54   +69 48.4    0.233    0.979    74.2    92.6    20.5
    2007 07 19    01 14.78   +61 58.5    0.213    0.986    75.8    92.2    20.3
    2007 07 29    02 02.88   +51 10.4    0.194    0.999    79.7    89.3    20.0
    2007 08 08    02 38.38   +37 40.0    0.182    1.018    86.1    83.6    19.7
    2007 08 18    03 04.08   +22 20.7    0.178    1.042    94.7    75.5    19.4
    2007 08 28    03 21.34   +06 49.3    0.184    1.071   104.2    66.2    19.2
    2007 09 07    03 30.73   -07 13.0    0.201    1.102   113.0    57.3    19.2
    2007 09 17    03 32.01   -18 47.3    0.225    1.135   120.2    49.9    19.3
    2007 09 27    03 25.50   -27 30.8    0.257    1.170   125.4    44.3    19.5
    2007 10 07    03 12.39   -33 25.5    0.295    1.206   128.5    40.4    19.7
    2007 10 17    02 55.09   -36 40.8    0.339    1.241   129.7    38.2    20.0
    2007 10 27    02 37.32   -37 34.8    0.388    1.276   129.3    37.1    20.4
    2007 11 06    02 22.33   -36 36.6    0.444    1.309   127.4    37.0    20.7
    2007 11 16    02 12.05   -34 15.8    0.505    1.341   124.6    37.4    21.1
    2007 11 26    02 07.07   -31 00.9    0.571    1.372   121.0    38.1    21.4
    2007 12 06    02 06.91   -27 14.8    0.644    1.400   116.9    38.9    21.7
    2007 12 16    02 10.88   -23 12.6    0.721    1.426   112.6    39.6    22.0
    
    Kyle E. Smalley              (C) Copyright 2007 MPC           M.P.E.C. 2007-F22
    

    Read MPEC 2007-F21 Read MPEC 2007-F23


    MPEC number:

    Enter an MPEC number in one of the following forms:

    • 1997-B01 (the full form)
    • J97B01 (the packed version of the full form)
    • B01 (the abbreviated form)